Oskaloosa, IA

7:21 PM CST on January 21, 2018 (GMT -0600)
Oskaloosa Municipal

Weather History for KOOA - June, 2013

Change the Weather History Date:

Thursday, June 27, 2013

  Actual Average (KOTM) Record (KOTM)
Temperature  
Mean Temperature 74 °F -  
Max Temperature 86 °F 85 °F 101 °F (1934)
Min Temperature 64 °F 65 °F 44 °F (2017)
Cooling Degree Days 9    
Growing Degree Days 24 (Base 50)    
Moisture  
Dew Point 65 °F    
Average Humidity 71    
Maximum Humidity 91    
Minimum Humidity 49    
Precipitation  
Precipitation 0.00 in - - ()
Sea Level Pressure  
Sea Level Pressure 29.89 in    
Wind  
Wind Speed 8 mph (WNW)    
Max Wind Speed 22 mph    
Max Gust Speed 25 mph    
Visibility 10 miles    
Events Rain    
Averages and records for this station are not official NWS values.
T = Trace of Precipitation, MM = Missing Value Source: NWS Daily Summary

Daily Weather History Graph

Daily Weather History Graph

Search for Another Location

Airport or City:

Trip Planner

Search our weather history database for the weather conditions in past years. The results will help you decide how hot, cold, wet, or windy it might be!

Date:

Astronomy

Jun. 27, 2013 Rise Set
Actual Time 5:39 AM CDT 8:46 PM CDT
Civil Twilight 5:05 AM CDT 9:20 PM CDT
Nautical Twilight 4:22 AM CDT 10:03 PM CDT
Astronomical Twilight 3:30 AM CDT 10:55 PM CDT
Moon 11:40 PM CDT (6/27) 10:43 AM CDT (6/27)
Length of Visible Light 16h 15m
Length of Day
15h 07m
Waning Gibbous, 76% of the Moon is Illuminated
Jun 27
Waning Gibbous
Jun 29
Last Quarter
Jul 8
New
Jul 15
First Quarter
Jul 22
Full

Hourly Weather History & Observations

Time (CDT) Temp. Heat Index Dew Point Humidity Pressure Visibility Wind Dir Wind Speed Gust Speed Precip Events Conditions
12:15 AM 70.3 °F - 64.8 °F 82% 29.85 in 10.0 mi WNW 6.9 mph - N/A   Clear
12:35 AM 69.8 °F - 64.8 °F 84% 29.85 in 10.0 mi WNW 5.8 mph - N/A   Clear
1:15 AM 69.8 °F - 64.4 °F 83% 29.85 in 10.0 mi WNW 6.9 mph - N/A   Clear
1:35 AM 69.1 °F - 64.0 °F 84% 29.85 in 10.0 mi WNW 6.9 mph - N/A   Clear
1:55 AM 68.0 °F - 63.9 °F 87% 29.85 in 10.0 mi WNW 5.8 mph - N/A   Clear
2:15 AM 68.4 °F - 64.0 °F 86% 29.86 in 10.0 mi NW 6.9 mph - N/A   Clear
2:35 AM 67.8 °F - 63.5 °F 86% 29.87 in 10.0 mi WNW 4.6 mph - N/A   Clear
2:55 AM 67.1 °F - 63.7 °F 89% 29.87 in 10.0 mi WNW 5.8 mph - N/A   Clear
3:15 AM 66.4 °F - 63.3 °F 90% 29.87 in 10.0 mi West 5.8 mph - N/A   Clear
3:35 AM 66.2 °F - 63.1 °F 90% 29.88 in 10.0 mi West 6.9 mph - N/A   Clear
3:55 AM 66.6 °F - 63.3 °F 89% 29.88 in 10.0 mi WNW 6.9 mph - N/A   Clear
4:15 AM 66.4 °F - 63.0 °F 89% 29.88 in 10.0 mi WNW 6.9 mph - N/A   Clear
4:35 AM 66.0 °F - 62.8 °F 89% 29.87 in 10.0 mi WNW 5.8 mph - N/A   Clear
4:55 AM 65.3 °F - 62.2 °F 90% 29.88 in 10.0 mi West 4.6 mph - N/A   Clear
5:15 AM 65.3 °F - 62.2 °F 90% 29.88 in 10.0 mi West 5.8 mph - N/A   Clear
5:35 AM 64.8 °F - 61.9 °F 90% 29.89 in 10.0 mi West 5.8 mph - N/A   Clear
5:55 AM 64.9 °F - 62.2 °F 91% 29.89 in 10.0 mi West 4.6 mph - N/A   Clear
6:15 AM 64.9 °F - 62.2 °F 91% 29.90 in 10.0 mi West 5.8 mph - N/A   Clear
6:35 AM 66.2 °F - 63.3 °F 90% 29.90 in 10.0 mi West 4.6 mph - N/A   Clear
6:55 AM 67.8 °F - 64.0 °F 88% 29.91 in 10.0 mi West 5.8 mph - N/A   Clear
7:15 AM 69.6 °F - 64.9 °F 85% 29.90 in 10.0 mi West 6.9 mph - N/A   Clear
7:35 AM 71.4 °F - 65.5 °F 81% 29.91 in 10.0 mi West 4.6 mph - N/A   Clear
7:55 AM 73.0 °F - 65.7 °F 78% 29.91 in 10.0 mi West 5.8 mph - N/A   Clear
8:15 AM 74.5 °F - 66.6 °F 76% 29.90 in 10.0 mi West 3.5 mph - N/A   Clear
8:35 AM 75.9 °F - 65.8 °F 71% 29.91 in 10.0 mi West 3.5 mph - N/A   Clear
8:55 AM 77.7 °F - 66.4 °F 68% 29.92 in 10.0 mi West 4.6 mph - N/A   Clear
9:15 AM 79.2 °F - 67.1 °F 66% 29.91 in 10.0 mi WNW 3.5 mph - N/A   Clear
9:35 AM 81.0 °F 83.4 °F 67.3 °F 63% 29.91 in 10.0 mi West 4.6 mph - N/A   Clear
9:55 AM 80.2 °F 82.6 °F 66.9 °F 64% 29.91 in 10.0 mi West 5.8 mph - N/A   Clear
10:15 AM 82.0 °F 84.3 °F 66.6 °F 59% 29.90 in 10.0 mi SW 6.9 mph - N/A   Clear
10:35 AM 83.5 °F 86.0 °F 66.7 °F 57% 29.90 in 10.0 mi WSW 10.4 mph - N/A   Clear
10:55 AM 82.9 °F 86.3 °F 68.9 °F 62% 29.90 in 10.0 mi WSW 9.2 mph - N/A   Clear
11:15 AM 83.7 °F 86.0 °F 66.2 °F 56% 29.90 in 10.0 mi WSW 11.5 mph - N/A   Clear
11:35 AM 84.6 °F 87.4 °F 67.1 °F 56% 29.90 in 10.0 mi West 11.5 mph 17.3 mph N/A   Clear
11:55 AM 84.9 °F 86.8 °F 65.3 °F 52% 29.91 in 10.0 mi West 17.3 mph 20.7 mph N/A   Clear
12:15 PM 82.8 °F 84.9 °F 66.0 °F 57% 29.92 in 10.0 mi West 15.0 mph 19.6 mph N/A   Clear
12:35 PM 81.7 °F 84.0 °F 66.4 °F 60% 29.93 in 10.0 mi West 13.8 mph 17.3 mph N/A   Clear
12:55 PM 80.8 °F 83.2 °F 67.1 °F 63% 29.92 in 10.0 mi West 12.7 mph - N/A Rain Light Rain
1:15 PM 80.1 °F 82.3 °F 67.1 °F 64% 29.93 in 10.0 mi West 13.8 mph - N/A Rain Light Rain
1:35 PM 80.2 °F 82.5 °F 66.4 °F 63% 29.93 in 10.0 mi WNW 16.1 mph 24.2 mph N/A   Light Drizzle
1:55 PM 79.7 °F - 65.3 °F 61% 29.93 in 10.0 mi WNW 18.4 mph 24.2 mph N/A   Scattered Clouds
2:15 PM 79.7 °F - 65.3 °F 61% 29.93 in 10.0 mi WNW 21.9 mph 25.3 mph N/A   Scattered Clouds
2:35 PM 78.3 °F - 64.8 °F 63% 29.92 in 10.0 mi NW 9.2 mph - N/A Rain Light Rain
2:55 PM 79.0 °F - 64.8 °F 62% 29.91 in 10.0 mi NNW 11.5 mph - N/A   Clear
3:15 PM 78.8 °F - 64.6 °F 62% 29.91 in 10.0 mi NW 11.5 mph - N/A   Clear
3:35 PM 81.3 °F 83.0 °F 64.8 °F 57% 29.90 in 10.0 mi NNW 10.4 mph - N/A   Clear
3:55 PM 82.4 °F 83.9 °F 64.4 °F 54% 29.90 in 10.0 mi NW 15.0 mph 18.4 mph N/A   Clear
4:15 PM 82.6 °F 84.5 °F 65.3 °F 56% 29.90 in 10.0 mi NW 12.7 mph 19.6 mph N/A   Clear
4:35 PM 83.3 °F 85.3 °F 65.5 °F 55% 29.89 in 10.0 mi NW 12.7 mph 18.4 mph N/A   Clear
4:55 PM 83.8 °F 85.6 °F 65.3 °F 53% 29.88 in 10.0 mi WNW 16.1 mph - N/A   Clear
5:15 PM 83.5 °F 85.3 °F 65.5 °F 54% 29.88 in 10.0 mi NW 11.5 mph - N/A   Clear
5:35 PM 84.4 °F 86.3 °F 65.7 °F 53% 29.87 in 10.0 mi NNW 13.8 mph 18.4 mph N/A   Clear
5:55 PM 84.4 °F 85.6 °F 63.9 °F 50% 29.87 in 10.0 mi NW 15.0 mph - N/A   Clear
6:15 PM 84.2 °F 85.2 °F 63.1 °F 49% 29.86 in 10.0 mi NW 15.0 mph 18.4 mph N/A   Clear
6:35 PM 84.2 °F 85.2 °F 63.1 °F 49% 29.86 in 10.0 mi NW 11.5 mph - N/A   Clear
6:55 PM 82.8 °F 85.1 °F 66.6 °F 58% 29.85 in 10.0 mi West 13.8 mph - N/A   Clear
7:15 PM 82.4 °F 84.6 °F 66.2 °F 58% 29.85 in 10.0 mi WNW 11.5 mph - N/A   Clear
7:35 PM 81.7 °F 84.0 °F 66.4 °F 60% 29.85 in 10.0 mi West 9.2 mph - N/A   Clear
7:55 PM 80.6 °F 82.9 °F 66.7 °F 63% 29.85 in 10.0 mi WNW 9.2 mph - N/A   Clear
8:15 PM 79.0 °F - 67.1 °F 67% 29.85 in 10.0 mi WNW 8.1 mph - N/A   Clear
8:35 PM 77.2 °F - 67.1 °F 71% 29.85 in 10.0 mi West 6.9 mph - N/A   Clear
8:55 PM 75.2 °F - 66.9 °F 75% 29.85 in 10.0 mi WNW 6.9 mph - N/A   Clear
9:15 PM 74.1 °F - 66.2 °F 76% 29.85 in 10.0 mi West 6.9 mph - N/A   Clear
9:35 PM 72.5 °F - 66.2 °F 81% 29.85 in 10.0 mi WNW 6.9 mph - N/A   Clear
9:55 PM 72.1 °F - 66.4 °F 82% 29.86 in 10.0 mi WNW 6.9 mph - N/A   Clear
10:15 PM 71.4 °F - 66.0 °F 83% 29.87 in 10.0 mi West 8.1 mph - N/A   Clear
10:35 PM 70.9 °F - 65.5 °F 83% 29.88 in 10.0 mi West 8.1 mph - N/A   Clear
10:55 PM 70.2 °F - 64.8 °F 83% 29.88 in 10.0 mi West 8.1 mph - N/A   Clear
11:15 PM 70.2 °F - 64.2 °F 81% 29.89 in 10.0 mi West 6.9 mph - N/A   Clear
11:35 PM 69.8 °F - 63.7 °F 81% 29.88 in 10.0 mi NW 6.9 mph - N/A   Clear
11:55 PM 70.9 °F - 62.8 °F 75% 29.87 in 10.0 mi NW 9.2 mph - N/A   Clear